Location: Berg
(47.2344°N, 9.5296°E)
Time: 16:19:31
(UTC+00:00)

AAUSAT CUBESAT 2 - Pass Details

Date: 30 November 2021
Orbit: 572 x 586 km, 97.5° (Epoch: 16 January)

Event Time Altitude Azimuth Distance (km) Brightness Sun altitude
Rises 03:32:32 0° 28° (NNE) 2,794 ? -32.2°
Reaches altitude 10° 03:35:17 10° 48° (NE) 1,892 ? -31.7°
Maximum altitude 03:38:06 18° 91° (E) 1,448 ? -31.2°
Drops below altitude 10° 03:40:55 10° 135° (SE) 1,886 ? -30.8°
Sets 03:43:39 0° 155° (SSE) 2,782 ? -30.3°
